LOT411 LSZH-EPWA

Flight info

Callsign LOT411
Flight time N/A
Altitude 35000
Route DEGES Z2 XEBIX N871 BEPAS DCT ETUDA DCT OKENO Q277 AGAVA
Aircraft B738/M-SDE2E3FGHIRWXY/LB1

Departure

Time 2026-04-26 16:31
Airport Zürich Airport (LSZH)

Arrival

Time N/A
Airport Warsaw Chopin Airport (EPWA)
Time Latitude Longitude Altitude Speed Heading
2026-04-26 15:43 47.45433 8.55692 1407 ft 0 kts 186°
2026-04-26 16:14 47.45440 8.55693 1396 ft 4 kts 186°
2026-04-26 16:14 47.45487 8.55704 1399 ft 4 kts 202°
2026-04-26 16:15 47.45507 8.55724 1405 ft 4 kts 250°
2026-04-26 16:15 47.45508 8.55758 1404 ft 4 kts 276°
2026-04-26 16:15 47.45507 8.55771 1399 ft 0 kts 276°
2026-04-26 16:21 47.45507 8.55770 1396 ft 0 kts 276°
2026-04-26 16:22 47.45508 8.55751 1405 ft 4 kts 276°
2026-04-26 16:22 47.45512 8.55695 1396 ft 7 kts 276°
2026-04-26 16:22 47.45519 8.55601 1401 ft 11 kts 276°
2026-04-26 16:22 47.45528 8.55476 1399 ft 12 kts 276°
2026-04-26 16:23 47.45570 8.55376 1396 ft 13 kts 333°
2026-04-26 16:23 47.45663 8.55319 1404 ft 16 kts 344°
2026-04-26 16:23 47.45734 8.55284 1403 ft 8 kts 335°
2026-04-26 16:23 47.45797 8.55241 1401 ft 11 kts 335°
2026-04-26 16:24 47.45876 8.55185 1398 ft 14 kts 334°
2026-04-26 16:24 47.45968 8.55123 1402 ft 16 kts 335°
2026-04-26 16:24 47.46073 8.55050 1401 ft 18 kts 335°
2026-04-26 16:24 47.46192 8.54968 1397 ft 20 kts 335°
2026-04-26 16:25 47.46323 8.54878 1402 ft 22 kts 335°
2026-04-26 16:25 47.46462 8.54782 1396 ft 22 kts 335°
2026-04-26 16:25 47.46597 8.54689 1397 ft 21 kts 335°
2026-04-26 16:25 47.46727 8.54599 1396 ft 17 kts 335°
2026-04-26 16:26 47.46804 8.54475 1396 ft 16 kts 303°
2026-04-26 16:26 47.46851 8.54392 1398 ft 16 kts 320°
2026-04-26 16:26 47.46977 8.54297 1399 ft 15 kts 334°
2026-04-26 16:26 47.47070 8.54233 1397 ft 14 kts 335°
2026-04-26 16:27 47.47159 8.54173 1404 ft 14 kts 336°
2026-04-26 16:27 47.47244 8.54113 1398 ft 13 kts 333°
2026-04-26 16:27 47.47325 8.54058 1397 ft 13 kts 335°
2026-04-26 16:27 47.47405 8.54003 1396 ft 12 kts 335°
2026-04-26 16:28 47.47483 8.53950 1396 ft 12 kts 335°
2026-04-26 16:28 47.47558 8.53898 1396 ft 12 kts 333°
2026-04-26 16:28 47.47608 8.53809 1402 ft 12 kts 285°
2026-04-26 16:28 47.47593 8.53697 1405 ft 11 kts 244°
2026-04-26 16:29 47.47548 8.53619 1399 ft 10 kts 186°
2026-04-26 16:29 47.47523 8.53629 1402 ft 0 kts 156°
2026-04-26 16:30 47.47477 8.53662 1397 ft 17 kts 153°
2026-04-26 16:30 47.47206 8.53848 1400 ft 79 kts 155°
2026-04-26 16:31 47.46496 8.54338 1402 ft 144 kts 154°
2026-04-26 16:31 47.45453 8.55072 1641 ft 177 kts 153°
2026-04-26 16:31 47.44435 8.55849 2778 ft 159 kts 146°
2026-04-26 16:31 47.43541 8.56878 3341 ft 167 kts 120°
2026-04-26 16:32 47.43138 8.58448 4001 ft 167 kts 90°
2026-04-26 16:32 47.43254 8.59533 4501 ft 157 kts 68°
2026-04-26 16:32 47.44006 8.61335 4546 ft 153 kts 39°
2026-04-26 16:32 47.44816 8.62381 4483 ft 160 kts 43°
2026-04-26 16:33 47.45636 8.63542 4426 ft 164 kts 50°
2026-04-26 16:33 47.46131 8.65036 4531 ft 166 kts 82°
2026-04-26 16:33 47.46210 8.66891 4787 ft 196 kts 85°
2026-04-26 16:33 47.46290 8.69015 4986 ft 219 kts 86°
2026-04-26 16:34 47.46367 8.71377 5229 ft 239 kts 86°
2026-04-26 16:34 47.46444 8.73937 5479 ft 260 kts 86°
2026-04-26 16:34 47.46524 8.76653 6127 ft 270 kts 86°
2026-04-26 16:34 47.46607 8.79455 6856 ft 275 kts 88°
2026-04-26 16:35 47.46650 8.82307 7570 ft 280 kts 89°
2026-04-26 16:35 47.46680 8.85219 8267 ft 287 kts 89°
2026-04-26 16:35 47.46708 8.88187 9009 ft 291 kts 90°
2026-04-26 16:35 47.46736 8.91155 9756 ft 295 kts 89°
2026-04-26 16:36 47.46765 8.94227 10378 ft 303 kts 90°
2026-04-26 16:36 47.46797 8.97450 10618 ft 325 kts 90°
2026-04-26 16:36 47.46831 9.00904 10807 ft 347 kts 89°
2026-04-26 16:36 47.46867 9.04562 11131 ft 363 kts 90°
2026-04-26 16:37 47.46904 9.08340 11692 ft 369 kts 89°
2026-04-26 16:37 47.46941 9.12133 12469 ft 370 kts 89°
2026-04-26 16:37 47.46977 9.15963 13120 ft 376 kts 89°
2026-04-26 16:37 47.47001 9.18536 13547 ft 379 kts 89°
2026-04-26 16:38 47.47046 9.23694 14570 ft 381 kts 89°
2026-04-26 16:38 47.47079 9.27634 15199 ft 386 kts 89°
2026-04-26 16:38 47.47111 9.31630 15816 ft 392 kts 89°
2026-04-26 16:38 47.47143 9.35683 16453 ft 396 kts 89°
2026-04-26 16:39 47.47173 9.39775 17098 ft 401 kts 88°
2026-04-26 16:39 47.47202 9.43925 17731 ft 406 kts 88°
2026-04-26 16:39 47.47230 9.48119 18362 ft 411 kts 88°
2026-04-26 16:39 47.47257 9.52358 18923 ft 415 kts 88°
2026-04-26 16:40 47.47282 9.56586 19473 ft 419 kts 88°
2026-04-26 16:40 47.47284 9.60905 20036 ft 422 kts 91°
2026-04-26 16:40 47.47128 9.65257 20607 ft 425 kts 93°
2026-04-26 16:40 47.46879 9.69612 21184 ft 427 kts 95°
2026-04-26 16:41 47.46601 9.74008 21690 ft 431 kts 95°
2026-04-26 16:41 47.46321 9.78446 22189 ft 436 kts 95°
2026-04-26 16:41 47.46049 9.82920 22694 ft 439 kts 95°
2026-04-26 16:41 47.45785 9.87434 23211 ft 442 kts 95°
2026-04-26 16:42 47.45524 9.91976 23701 ft 445 kts 95°
2026-04-26 16:42 47.45263 9.96547 24067 ft 448 kts 95°
2026-04-26 16:42 47.45004 10.01087 24395 ft 451 kts 95°
2026-04-26 16:42 47.44737 10.05713 24763 ft 452 kts 95°
2026-04-26 16:43 47.44470 10.10330 25199 ft 452 kts 95°
2026-04-26 16:43 47.44198 10.14961 25558 ft 453 kts 95°
2026-04-26 16:43 47.43889 10.19609 25872 ft 456 kts 98°
2026-04-26 16:43 47.43340 10.24244 26152 ft 459 kts 102°
2026-04-26 16:44 47.42663 10.28855 26496 ft 460 kts 103°
2026-04-26 16:44 47.41980 10.33477 26836 ft 462 kts 102°
2026-04-26 16:44 47.41336 10.38066 27131 ft 464 kts 102°
2026-04-26 16:44 47.40762 10.42756 27425 ft 466 kts 96°
2026-04-26 16:45 47.40680 10.47543 27660 ft 469 kts 86°
2026-04-26 16:45 47.41112 10.52317 27906 ft 471 kts 77°
2026-04-26 16:45 47.42057 10.56951 28164 ft 472 kts 69°
2026-04-26 16:45 47.43233 10.61474 28455 ft 473 kts 68°
2026-04-26 16:46 47.44428 10.66005 28723 ft 474 kts 68°
2026-04-26 16:46 47.45595 10.70571 28972 ft 477 kts 69°
2026-04-26 16:46 47.46739 10.75182 29211 ft 478 kts 69°
2026-04-26 16:46 47.47849 10.79749 29467 ft 480 kts 70°
2026-04-26 16:47 47.48973 10.84412 29664 ft 482 kts 69°
2026-04-26 16:47 47.50097 10.89081 29908 ft 484 kts 70°
2026-04-26 16:47 47.52369 10.98526 30243 ft 489 kts 69°
2026-04-26 16:48 47.53506 11.03264 30597 ft 487 kts 69°
2026-04-26 16:48 47.54635 11.07979 30887 ft 485 kts 69°
2026-04-26 16:48 47.55757 11.12687 31126 ft 486 kts 69°
2026-04-26 16:48 47.56878 11.17414 31366 ft 487 kts 69°
2026-04-26 16:49 47.57982 11.22082 31649 ft 486 kts 69°
2026-04-26 16:49 47.59097 11.26808 31946 ft 485 kts 70°
2026-04-26 16:49 47.60211 11.31532 32200 ft 486 kts 70°
2026-04-26 16:49 47.61322 11.36253 32492 ft 485 kts 69°
2026-04-26 16:50 47.62430 11.40978 32760 ft 485 kts 70°
2026-04-26 16:50 47.63457 11.45741 33028 ft 485 kts 72°
2026-04-26 16:50 47.64424 11.50524 33401 ft 482 kts 72°
2026-04-26 16:50 47.65388 11.55281 33682 ft 483 kts 71°
2026-04-26 16:51 47.66353 11.59991 33869 ft 484 kts 72°
2026-04-26 16:51 47.67330 11.64772 34093 ft 485 kts 72°
2026-04-26 16:51 47.68305 11.69560 34338 ft 484 kts 72°
2026-04-26 16:51 47.69277 11.74339 34614 ft 483 kts 72°
2026-04-26 16:52 47.70243 11.79103 34909 ft 481 kts 72°
2026-04-26 16:52 47.70561 11.80711 35000 ft 481 kts 72°
2026-04-26 16:52 47.72084 11.88650 35147 ft 481 kts 69°
2026-04-26 16:52 47.73476 11.93135 35169 ft 477 kts 56°
2026-04-26 16:53 47.77744 12.00501 35176 ft 468 kts 36°
2026-04-26 16:53 47.82785 12.06499 35186 ft 467 kts 35°
2026-04-26 16:54 47.87839 12.12608 35172 ft 468 kts 36°